STARLINK-34362

Satellite information

Favourite Embed

Satellite Type and Status

PAYLOADIN ORBIT

Key statistics

Satellite STARLINK-34362 at a glance.

Uptime

27

Days in orbit

Revolutions

≈ 15.4

Per day

Orbit

LEO

Low Earth Orbit

Inclination

70.0

Latest

Satellite identification and parameters

Extended collection of information and parameters for STARLINK-34362.

Object identification

Identified? True

Debris? False

Object name: STARLINK-34362

International designator: 2025-123B

Object number (NORAD): 64292

Object ID (CCSDS): 64292

Country: UNITED STATES OF AMERICA (US)

Current information (Y/N): Y

RCS size: LARGE

Orbital parameters

Period: 93.344 minutes

Inclination: 70.0 deg

SMA: 6816.343 km

Apoapsis: 440.484 km

Periapsis: 435.933 km

RAAN: 113.9952 deg

Eccentricy: 0.0003338

Argument of periapsis: 266.6639 deg

Mean anomaly: 231.1157 deg

Mean motion: 15.42679062 rev/day

Mean motion (dot): 0.00041207 rev/day2

B* drag term: 0.00094036 1/REarth

Two-line elements (TLE)

Creation date: July 4, 2025, 10:36 p.m.

Reference frame: TEME

Reference center: EARTH

Epoch: July 4, 2025, 8 p.m. UTC

TLE line 0: 0 STARLINK-34362

TLE line 1: 1 64292U 25123B 25185.83335648 .00041207 00000-0 94036-3 0 9996

TLE line 2: 2 64292 70.0000 113.9952 0003338 266.6639 231.1157 15.42679062 5363

Live tracking on map

Real-time ground track for satellite STARLINK-34362.

In-orbit conjunctions

There are no conjunctions computed for STARLINK-34362, at the moment. Check back to stay up to date, as we update our databases every day.

Go to all conjunctions

Associated space launch

A batch of 26 satellites for the Starlink mega-constellation - SpaceX's project for space-based Internet communication system.

STARLINK-34362 was lifted into orbit during the mission ‘Falcon 9 Block 5 | Starlink Group 15-8’, on board a Falcon 9 space rocket.

The launch took place on June 8, 2025, 2:20 p.m. from Space Launch Complex 4E.

For more information about the launch, click the button.

Launch to space Falcon 9 Block 5 | Starlink Group 15-8
Falcon 9 Block 5 | Starlink Group 15-8

Agency: SpaceX

Status: Launch Successful

Launch date: June 8, 2025, 2:20 p.m. UTC

Rocket: Falcon 9

Launch pad: Space Launch Complex 4E

Location: Vandenberg SFB, CA, USA

...

Latest news about this satellite

News about space launch
Live coverage: SpaceX to launch 26 Starlink satellites on Falcon 9 rocket from Vandenberg SFB

The mission, dubbed Starlink 15-8, will be SpaceX’s 70th Falcon 9 launch of the year. It’s targeting a liftoff from pad 4 East at 6:34 a.m. PDT (9:34 a.m. EDT, 1334 UTC).

News about space launch
Launch Roundup: Falcon 9 to launch crewed mission, Rocket Lab to launch 65th Electron

SpaceX continues to dominate the launch manifest with five missions this week, including a crewed… The post Launch Roundup: Falcon 9 to launch crewed mission, Rocket Lab to launch 65th Electron appeared first on NASASpaceFlight.com.


Newsletter sign-up

Weekly statistics, charts and insights to help you stay on top of the space industry.